Temperature
7 7 7 7 7 7 7 6 6 6 6 7 6 6 6 6 6 6 5 5 5 5 5 5 4 4 4 4 4 4 4 4 3 3 3 3 3 3
6 6 6 6 6 6 6 6 6 6 5 6 6 6 6 5 5 5 5 5 5 4 4 4 4 4 4 4 4 4 3 3 3 3 3 3 3 3
6 6 6 6 6 6 6 6 6 5 5 5 6 5 5 5 5 5 4 4 4 4 4 4 4 4 4 3 3 3 3 3 3 3 2 2 2 2
6 5 6 6 6 5 5 5 5 5 5 5 5 5 5 4 4 4 4 4 4 4 4 3 3 3 3 3 3 3 3 3 3 2 2 2 2 2
5 5 5 5 5 5 5 5 5 5 5 5 5 4 4 4 4 4 4 4 4 4 3 3 3 3 3 3 3 3 2 2 2 2 2 2 2 1
5 5 5 5 5 5 5 5 4 4 4 4 4 4 4 4 4 4 4 3 3 3 3 3 3 3 3 3 2 2 2 2 2 2 2 1 1 1
4 4 4 4 4 4 4 4 4 4 3 4 3 3 3 3 3 3 3 3 3 3 3 3 3 3 3 2 2 2 2 2 2 1 1 1 1 1
4 4 4 4 4 4 4 4 4 3 3 3 3 3 3 3 3 3 2 2 2 2 2 2 2 2 2 2 2 2 2 1 1 1 1 1 1 1
3 3 3 3 3 3 3 3 3 3 3 3 3 3 3 3 3 2 2 2 2 2 2 2 2 2 2 2 2 2 1 1 1 1 0 0 0 0
3 3 3 3 3 3 3 3 3 3 3 3 3 3 3 3 2 2 2 2 2 2 1 1 2 2 2 2 1 1 1 1 1 1 0 0 0 0
2 2 2 2 2 2 2 2 2 2 2 2 2 2 2 2 2 2 1 1 1 1 1 1 1 1 1 1 1 1 1 1 0 0 0 0 0 0
2 2 2 2 2 2 2 2 2 2 2 2 2 2 2 2 2 2 1 1 1 1 1 1 1 0 0 1 1 1 1 0 0 0 0 0 -0 -0
1 1 1 1 1 1 2 2 2 2 2 2 2 2 2 2 2 1 1 1 1 1 1 0 0 0 -0 -0 0 1 0 0 0 0 -0 -0 -0 -0
0 1 1 1 1 1 1 1 1 1 1 1 1 1 1 1 1 1 1 1 1 1 1 0 0 0 -0 -0 -0 0 0 -0 -0 -0 -0 -0 -0 -0
-0 -0 0 0 0 0 0 1 1 1 1 1 1 1 1 1 1 1 1 1 1 1 0 0 0 0 -0 -0 -1 -0 -0 -0 -0 -1 -1 -1 -1 -1
-1 -0 -0 -0 0 -0 0 0 0 0 0 0 0 0 0 0 0 0 0 0 0 0 0 -0 -0 -0 -0 -0 -0 -1 -1 -1 -1 -1 -1 -1 -1 -1
-1 -1 -1 -0 -0 -0 -0 -0 -0 -0 -0 -0 -0 -0 -0 -0 -0 -0 -0 -0 -0 -0 -0 -0 -0 -0 -0 -0 -0 -1 -1 -1 -1 -1 -1 -1 -0 -1
-1 -1 -1 -1 -1 -1 -1 -1 -1 -1 -1 -1 -1 -0 -0 -0 -0 -0 -0 -0 -0 -0 -0 -0 -1 -0 -0 -0 -1 -1 -1 -1 -1 -1 -1 -1 -1 -1
-2 -1 -1 -1 -1 -1 -1 -1 -1 -1 -1 -1 -1 -1 -1 -1 -1 -1 -1 -1 -1 -1 -1 -1 -1 -1 -1 -1 -1 -1 -1 -1 -1 -1 -1 -1 -1 -1
-2 -2 -2 -2 -2 -2 -2 -2 -2 -2 -1 -1 -1 -1 -1 -1 -1 -1 -1 -1 -1 -1 -1 -1 -1 -1 -2 -2 -2 -2 -2 -2 -2 -2 -1 -1 -1 -1
-2 -2 -2 -2 -2 -2 -2 -2 -2 -2 -2 -2 -2 -2 -2 -2 -1 -1 -1 -1 -1 -1 -1 -1 -1 -2 -2 -2 -2 -2 -2 -2 -2 -2 -2 -2 -1 -1
-3 -3 -3 -3 -3 -2 -2 -2 -2 -2 -2 -2 -2 -2 -2 -2 -2 -1 -1 -2 -2 -2 -2 -2 -2 -2 -2 -2 -2 -2 -2 -1 -2 -2 -2 -2 -2 -2
-3 -3 -3 -3 -3 -3 -3 -3 -2 -2 -2 -2 -2 -2 -2 -2 -2 -2 -2 -2 -2 -2 -2 -2 -2 -2 -2 -2 -2 -2 -2 -2 -2 -2 -2 -2 -2 -2
Wind_Speed
4 4 4 3 3 3 3 4 4 3 3 2 2 2 3 3 3 4 4 4 4 5 5 6 7 7 7 8 9 10 11 11 12 13 14 15 15 15
4 4 4 3 3 3 4 4 3 3 3 2 2 2 2 2 3 3 4 4 4 5 5 6 6 7 8 8 9 9 10 11 12 13 14 14 15 15
4 4 5 4 4 4 3 3 2 2 3 2 1 1 1 2 2 3 3 3 3 5 5 6 7 7 7 8 8 9 10 11 12 12 13 13 14 15
5 5 4 3 4 4 4 3 3 3 3 3 2 1 2 2 2 2 2 3 4 5 5 6 6 6 6 7 8 9 9 10 11 12 13 13 14 15
5 5 5 4 4 4 4 4 3 2 2 3 2 1 2 1 1 1 1 2 3 4 5 5 5 5 6 7 7 8 9 10 11 11 12 13 14 14
4 4 5 6 5 5 4 4 3 3 2 3 2 2 2 1 1 1 2 1 2 3 4 4 5 6 6 7 7 8 9 10 11 11 12 12 13 14
3 3 4 5 6 5 4 4 4 3 2 3 3 1 2 1 1 1 2 2 3 2 2 3 4 3 4 6 7 8 9 10 10 11 12 12 13 14
3 3 3 3 4 4 5 5 5 5 4 3 3 3 3 3 2 1 1 2 2 1 2 4 3 3 3 3 6 8 9 9 10 11 12 12 13 13
3 3 2 2 2 2 3 3 4 5 6 5 4 4 4 4 3 2 2 2 3 2 2 3 2 3 4 5 8 8 8 9 9 10 12 12 13 13
3 3 3 3 3 3 3 2 2 2 4 3 4 4 3 4 4 4 3 1 2 2 1 2 2 3 4 5 7 7 8 9 10 10 11 12 12 13
2 2 3 4 4 4 4 3 2 1 1 1 2 2 2 3 3 2 1 1 2 2 1 1 1 3 3 3 5 7 8 9 9 11 11 12 12 12
1 1 3 3 4 5 4 4 3 2 1 1 1 2 1 1 1 2 3 2 1 2 1 1 1 2 2 2 3 4 5 7 10 11 11 11 11 9
1 1 2 3 4 4 4 4 4 2 2 1 0 1 1 1 0 0 1 2 2 2 2 1 1 1 1 3 3 3 4 4 6 8 10 11 11 9
1 1 1 1 2 2 2 3 3 2 2 2 1 0 1 1 1 1 1 1 1 3 4 2 1 2 2 3 3 3 4 4 4 5 6 9 10 10
1 1 0 1 1 1 2 3 3 2 3 2 1 1 1 1 1 1 1 2 3 1 1 1 2 2 2 2 3 3 4 4 4 4 5 5 5 6
1 1 2 2 2 2 2 2 1 2 2 2 1 0 1 1 1 1 1 1 2 2 2 2 1 1 1 2 2 3 3 3 4 5 5 5 5 5
0 1 1 1 1 1 1 1 1 1 1 1 1 1 0 0 1 1 0 0 0 1 2 2 2 1 1 2 2 3 3 4 4 5 5 5 5 5
1 1 1 1 1 1 0 1 0 0 1 1 1 1 1 1 1 1 1 0 0 1 1 1 2 3 2 2 1 2 3 3 4 4 4 4 6 6
0 1 1 1 1 1 0 0 0 0 0 1 1 1 1 0 0 0 0 1 1 1 1 1 1 1 2 3 3 2 2 4 4 4 4 4 5 7
0 0 1 1 1 1 0 0 0 0 0 0 0 1 1 1 0 0 0 0 0 1 1 1 1 1 1 2 2 3 4 3 3 4 5 4 5 7
1 1 1 1 1 1 0 1 1 1 1 1 0 1 1 1 1 1 1 0 0 1 1 2 2 3 1 1 1 3 3 5 4 3 4 4 4 4
1 1 1 0 0 0 0 0 0 1 0 0 1 1 1 1 1 1 1 1 1 1 1 2 2 2 2 1 2 3 4 5 6 7 5 4 2 3
1 1 1 1 0 0 0 1 1 1 1 1 1 1 0 0 1 1 1 1 1 0 0 1 2 2 1 1 1 2 4 5 4 5 5 8 7 6
Wind_Direction
209 206 206 207 200 200 194 196 191 214 243 236 230 227 222 228 249 251 256 267 287 298 302 305 307 309 312 317 319 321 322 323 325 323 321 321 323 325
209 207 212 207 194 198 201 207 204 203 231 239 245 261 258 268 258 252 259 277 290 296 299 306 307 308 310 314 318 321 320 322 323 323 323 326 327 327
208 206 218 205 198 202 193 193 203 196 220 264 264 260 250 251 271 261 265 264 276 298 301 306 307 304 305 315 319 319 319 322 325 328 328 329 328 327
212 207 218 206 201 199 190 191 201 209 201 223 260 252 253 246 248 265 287 281 277 290 300 310 312 309 309 313 317 323 326 328 330 330 331 331 329 327
216 211 214 203 208 202 197 194 198 208 198 193 233 255 264 250 261 290 296 297 294 295 301 310 316 317 318 321 326 328 328 328 329 330 332 331 329 327
216 213 213 205 202 198 199 195 189 191 186 187 212 242 255 248 196 267 311 311 314 315 309 309 314 323 326 328 327 326 326 326 328 331 332 330 328 327
216 221 220 213 209 203 199 190 185 190 195 203 210 231 249 232 241 241 290 320 314 302 317 317 317 321 324 319 319 321 322 324 327 329 329 328 327 325
216 221 224 212 212 211 207 202 196 196 205 212 222 228 237 231 227 239 273 314 300 294 325 309 313 301 304 305 306 313 317 321 326 328 328 328 327 326
211 207 221 219 206 197 205 215 224 226 219 214 216 231 229 217 208 224 233 258 272 268 304 292 300 291 297 297 305 310 318 325 329 329 329 329 329 328
213 204 208 212 205 187 178 194 241 249 246 230 222 227 234 216 203 207 213 255 300 281 253 274 290 295 307 301 303 312 321 327 331 332 333 332 331 330
229 214 209 206 203 184 171 189 228 270 316 267 269 262 253 242 189 153 168 213 296 281 241 234 278 311 301 294 307 319 326 331 334 336 335 334 334 332
227 239 233 219 206 193 181 183 204 231 173 55 15 12 6 284 232 192 189 205 262 263 227 212 273 325 314 293 312 328 330 328 332 334 335 336 337 339
229 236 251 237 211 200 190 189 201 186 167 169 168 17 0 348 290 251 211 202 224 246 220 205 252 265 266 300 308 315 324 326 330 331 334 336 338 340
238 240 222 218 195 191 192 178 162 139 139 141 132 235 302 326 326 331 342 345 237 233 223 218 230 242 278 300 301 314 319 325 331 329 334 333 335 335
251 257 210 159 157 161 154 145 136 137 141 144 189 259 294 306 349 19 35 36 32 12 220 233 228 243 258 277 293 309 316 315 328 331 329 326 324 328
25 76 68 81 92 105 119 120 130 156 155 170 197 255 356 3 352 353 354 13 18 3 10 20 24 203 265 288 284 299 308 308 323 325 321 317 320 323
22 87 71 85 80 77 77 85 102 111 110 114 154 151 113 351 325 329 329 7 39 343 346 357 19 46 247 261 294 301 307 309 308 320 323 320 317 320
2 144 143 153 159 153 107 51 72 114 142 155 162 162 199 236 317 335 3 70 74 337 338 335 351 360 360 348 265 286 302 306 316 323 322 317 316 321
34 169 186 188 187 180 184 215 283 287 207 192 192 204 226 246 309 339 49 45 25 349 337 342 354 4 345 329 324 325 307 315 321 322 320 310 304 310
40 212 209 201 188 184 202 238 275 266 240 242 224 214 216 210 210 204 174 141 352 343 347 351 352 322 269 269 282 309 323 321 317 317 317 310 299 301
339 307 253 223 206 194 205 204 202 218 246 237 240 223 217 212 216 207 190 189 320 317 318 317 313 321 317 333 330 322 320 324 319 312 315 322 328 336
326 316 313 288 240 208 207 197 204 232 228 252 252 242 230 219 195 187 186 188 221 265 300 318 334 353 16 8 324 317 325 333 340 341 335 326 317 331
321 319 322 318 294 251 220 215 231 253 259 269 256 250 219 177 182 185 179 172 169 154 353 342 353 9 7 348 328 325 332 338 346 354 349 347 342 320
Height
1465 1466 1468 1469 1470 1472 1473 1473 1474 1473 1472 1473 1476 1477 1477 1478 1478 1478 1478 1478 1477 1477 1476 1475 1473 1472 1470 1469 1467 1465 1463 1460 1458 1456 1454 1451 1449 1447
1461 1462 1464 1465 1466 1468 1469 1470 1470 1470 1469 1469 1471 1473 1474 1474 1474 1474 1474 1474 1473 1473 1472 1471 1469 1468 1466 1465 1463 1461 1459 1456 1454 1452 1450 1447 1445 1443
1457 1458 1460 1461 1462 1464 1465 1465 1466 1467 1466 1466 1468 1469 1470 1470 1470 1470 1470 1470 1469 1469 1468 1466 1465 1463 1462 1461 1459 1457 1455 1452 1450 1448 1445 1443 1441 1439
1452 1454 1455 1457 1458 1460 1461 1461 1462 1463 1463 1462 1464 1465 1466 1466 1466 1466 1466 1466 1466 1465 1464 1463 1461 1459 1458 1457 1455 1453 1451 1449 1446 1444 1442 1439 1437 1435
1448 1450 1451 1452 1454 1455 1457 1457 1459 1460 1460 1460 1460 1461 1462 1462 1462 1462 1462 1462 1462 1461 1460 1459 1458 1456 1455 1453 1451 1449 1447 1445 1443 1440 1438 1436 1433 1431
1444 1446 1447 1448 1450 1451 1453 1453 1455 1456 1456 1456 1457 1457 1458 1458 1458 1458 1457 1458 1458 1457 1457 1456 1454 1453 1452 1450 1448 1446 1444 1442 1439 1437 1435 1432 1430 1427
1441 1442 1443 1444 1446 1447 1449 1450 1451 1451 1452 1452 1453 1453 1454 1454 1454 1454 1453 1453 1453 1453 1452 1452 1451 1449 1448 1447 1445 1443 1440 1438 1436 1434 1432 1429 1426 1423
1437 1438 1439 1441 1442 1444 1445 1446 1448 1448 1448 1449 1449 1449 1449 1450 1450 1450 1450 1450 1449 1450 1449 1448 1448 1446 1445 1443 1442 1440 1438 1435 1433 1431 1428 1426 1423 1420
1433 1434 1435 1437 1438 1440 1441 1443 1444 1445 1446 1446 1445 1446 1446 1447 1447 1447 1447 1447 1446 1446 1446 1444 1444 1442 1442 1440 1439 1437 1435 1433 1430 1428 1425 1423 1420 1417
1430 1431 1432 1433 1435 1436 1438 1439 1440 1441 1442 1442 1443 1443 1444 1444 1444 1445 1444 1444 1444 1444 1443 1441 1440 1439 1438 1437 1436 1434 1432 1430 1428 1425 1423 1420 1417 1415
1427 1428 1429 1430 1432 1433 1435 1436 1437 1438 1439 1440 1440 1441 1441 1441 1442 1442 1441 1440 1439 1440 1440 1438 1436 1435 1434 1433 1432 1431 1429 1427 1425 1422 1420 1417 1415 1412
1425 1425 1426 1427 1428 1430 1431 1432 1433 1435 1436 1436 1437 1438 1438 1438 1439 1439 1438 1438 1437 1436 1436 1436 1434 1433 1431 1430 1429 1428 1426 1424 1422 1420 1417 1415 1412 1409
1422 1423 1423 1424 1426 1427 1428 1429 1430 1432 1432 1433 1434 1434 1435 1435 1435 1435 1436 1435 1435 1434 1434 1433 1432 1431 1431 1428 1426 1425 1424 1421 1419 1417 1415 1413 1410 1407
1420 1421 1422 1423 1424 1424 1425 1426 1428 1429 1430 1431 1431 1432 1432 1432 1432 1433 1433 1433 1433 1432 1431 1431 1430 1429 1428 1426 1424 1423 1421 1420 1417 1415 1413 1410 1408 1406
1418 1419 1420 1420 1421 1422 1423 1424 1426 1427 1427 1428 1428 1429 1429 1429 1429 1430 1430 1430 1430 1430 1429 1429 1428 1427 1426 1424 1422 1421 1419 1417 1416 1413 1411 1408 1406 1403
1417 1417 1418 1418 1419 1420 1421 1423 1423 1424 1425 1425 1426 1426 1427 1427 1427 1427 1427 1427 1427 1427 1427 1427 1426 1425 1424 1423 1421 1419 1418 1416 1414 1412 1410 1407 1405 1402
1415 1416 1416 1417 1417 1418 1419 1420 1421 1421 1422 1423 1423 1424 1424 1425 1425 1425 1425 1425 1425 1424 1424 1424 1424 1423 1422 1421 1420 1418 1417 1415 1413 1411 1408 1405 1403 1401
1414 1414 1415 1415 1416 1416 1417 1418 1419 1419 1420 1421 1421 1422 1422 1423 1423 1423 1423 1423 1423 1423 1423 1422 1422 1421 1421 1420 1420 1417 1416 1414 1412 1410 1407 1404 1402 1400
1412 1412 1413 1414 1414 1415 1415 1416 1417 1418 1419 1419 1419 1420 1420 1421 1421 1421 1422 1422 1422 1422 1421 1421 1421 1420 1419 1418 1418 1417 1415 1413 1411 1409 1406 1404 1401 1399
1410 1411 1411 1412 1413 1413 1414 1414 1415 1416 1417 1417 1417 1418 1419 1419 1419 1420 1420 1420 1420 1420 1420 1420 1420 1419 1418 1418 1416 1415 1414 1412 1410 1407 1405 1403 1401 1399
1409 1410 1410 1411 1411 1412 1412 1413 1414 1414 1415 1415 1416 1416 1417 1417 1418 1419 1419 1419 1419 1419 1419 1419 1418 1419 1418 1417 1416 1414 1413 1412 1410 1407 1404 1402 1399 1397
1409 1409 1409 1409 1409 1410 1410 1411 1412 1412 1413 1413 1414 1414 1415 1416 1416 1417 1417 1417 1418 1418 1418 1418 1418 1417 1417 1416 1415 1414 1412 1411 1409 1407 1405 1403 1401 1398
1408 1408 1408 1408 1408 1408 1409 1409 1410 1410 1411 1412 1412 1413 1413 1414 1415 1416 1416 1416 1417 1417 1417 1417 1416 1416 1416 1415 1414 1413 1411 1410 1408 1406 1405 1404 1402 1400